Simultaneous Nadir Overpasses (SNOs) Predictions

Prediction of SNOs between AQUA and NPP Satellite Orbit:

Table of predicted SNOs for the next 14.0 days since TLE Epoch: 12/10/2016
Index Date (AQUA) Time (AQUA) Lat,Lon (AQUA) SZA (AQUA ) Date (NPP) Time (NPP) Lat,Lon (NPP) SZA (NPP ) Distance(km) Time Diff (sec)
1 12/10/2016 05:31:59 -75.61, 154.85 60.41 12/10/2016 05:31:37 -75.62, 154.90 60.40 1.30 22
2 12/10/2016 06:21:01 76.74, -33.90 118.39 12/10/2016 06:21:56 76.75, -33.81 118.32 2.44 55
3 12/12/2016 20:59:18 74.64, 100.50 120.87 12/12/2016 20:58:05 74.64, 100.51 120.94 0.29 73
4 12/12/2016 21:48:22 -75.84, -88.60 60.38 12/12/2016 21:48:26 -75.83, -88.64 60.37 1.12 4
5 12/15/2016 13:15:39 75.01,-142.66 120.70 12/15/2016 13:14:52 75.01,-142.71 120.76 1.53 47
6 12/15/2016 14:04:45 -76.10, 28.09 60.44 12/15/2016 14:05:15 -76.09, 28.00 60.45 2.65 30
7 12/18/2016 05:32:00 75.37, -25.80 120.50 12/18/2016 05:31:39 75.37, -25.88 120.54 2.42 21
8 12/18/2016 06:20:58 -76.82, 146.41 61.07 12/18/2016 06:21:53 -76.83, 146.51 61.15 2.66 55
9 12/20/2016 20:59:10 -75.02, -78.53 59.02 12/20/2016 20:57:57 -75.02, -78.44 58.98 2.73 73
10 12/20/2016 21:48:19 75.82, 91.37 120.14 12/20/2016 21:48:24 75.81, 91.29 120.15 2.41 5
11 12/23/2016 13:15:37 -75.01, 37.33 58.95 12/23/2016 13:14:51 -75.00, 37.26 58.88 2.30 46




NCC Satellite Simultaneous Nadir Overpasses (SNOs) Prediction Service
